Theta_e
332 332 332 332 332 332 333 334 334 332 331 330 329 331 332 333 333 332 332 333 333 331 330 331 333 332 332 332 332 333 333 332 331 330 331 332 330 330 331 330 330 329 328 328 328 327 329 329 327 327 327 328 328 327 327 327 327 327 327 325 325 324 324
332 332 332 332 331 331 332 333 334 333 333 332 331 332 333 333 333 331 331 332 332 330 329 331 333 332 331 331 332 332 332 332 331 331 331 331 330 330 331 331 330 329 328 328 328 326 327 328 329 327 324 324 325 326 327 327 327 326 326 325 325 324 324
333 332 332 332 331 331 332 332 333 333 333 332 331 332 333 333 332 332 332 332 331 330 330 331 333 332 331 330 331 332 332 332 331 331 331 331 330 330 331 331 330 328 327 327 327 326 326 326 328 326 321 321 323 324 326 327 326 325 325 325 324 323 323
333 332 332 332 331 331 331 332 332 333 332 331 331 332 332 332 333 333 332 331 331 331 331 332 332 332 331 330 330 331 331 332 332 331 331 330 330 330 330 330 329 328 327 327 326 326 326 324 324 322 319 320 322 323 325 326 325 325 324 323 322 321 320
333 332 332 332 331 331 331 332 332 333 332 331 331 332 333 333 333 332 332 331 331 332 332 332 332 332 331 330 330 331 331 331 332 332 331 331 331 330 330 329 329 328 328 328 327 326 326 323 322 320 318 320 321 321 324 325 324 325 324 323 322 321 319
334 332 332 332 331 331 332 332 332 333 332 332 332 332 333 333 333 332 332 332 332 332 332 332 331 331 331 330 330 331 331 330 331 332 331 331 331 330 330 329 329 328 328 328 327 327 326 322 320 318 318 320 319 319 321 322 323 324 324 323 322 321 319
333 332 331 331 331 332 332 332 331 331 332 332 332 333 333 333 332 332 332 332 332 331 331 331 331 331 331 330 329 330 331 331 331 332 331 331 331 330 329 329 329 328 328 328 327 327 326 322 319 318 318 319 318 317 317 318 320 322 321 322 323 320 317
332 332 331 331 331 332 331 331 330 331 331 331 332 333 334 333 332 333 333 332 332 331 331 331 330 330 330 330 329 330 331 332 332 331 331 330 330 330 330 328 328 328 328 328 327 327 326 323 320 319 319 319 318 317 315 315 318 320 321 321 321 320 315
333 332 331 331 331 331 331 330 330 331 331 331 333 333 332 332 332 333 333 332 332 331 331 330 330 330 330 330 330 330 331 332 332 331 331 331 330 330 329 329 328 328 328 328 328 327 327 325 322 319 319 318 318 317 316 316 314 314 318 320 319 318 315
333 332 331 331 331 331 331 331 330 331 332 332 333 333 332 332 333 333 332 332 332 331 331 331 330 330 330 330 330 330 331 332 332 332 331 332 331 330 329 329 327 328 328 327 327 327 327 326 324 321 319 318 317 317 318 319 314 310 314 317 316 316 314
331 332 331 331 331 331 331 331 331 331 332 333 333 333 332 332 333 332 332 332 332 332 332 331 330 330 330 331 330 331 332 332 332 331 331 331 331 330 330 329 328 327 327 327 327 327 326 326 325 323 321 318 317 316 316 318 316 311 312 313 312 314 312
331 332 332 331 331 331 331 331 331 332 333 332 332 332 331 332 333 332 332 332 332 332 332 331 330 330 330 331 331 331 332 332 331 331 330 330 330 331 330 329 327 327 327 327 326 326 326 326 325 323 321 318 316 315 314 315 313 311 312 313 311 311 311
330 330 331 332 331 332 332 331 332 332 332 332 331 331 331 331 332 332 332 332 332 332 331 331 330 330 330 330 331 331 331 331 331 330 330 329 329 331 330 329 328 327 327 327 326 326 326 325 325 325 322 317 314 314 314 313 311 309 311 313 312 311 310
329 327 329 331 332 332 332 332 332 332 332 331 331 331 330 330 330 330 331 331 331 331 330 331 330 330 330 330 329 329 329 330 331 329 329 329 329 330 330 329 328 328 328 328 327 326 325 325 326 325 324 321 316 313 312 312 310 309 309 311 311 311 309
329 327 326 329 332 331 332 333 333 331 330 329 330 329 328 329 330 330 330 330 329 329 329 329 330 329 329 329 329 329 329 329 330 329 328 328 329 329 329 329 329 328 329 328 327 326 326 326 326 326 325 325 321 316 315 313 310 309 310 310 310 310 309
329 328 326 327 330 331 331 332 331 330 329 329 328 328 327 328 329 329 329 329 328 328 328 328 328 328 328 329 329 329 329 329 329 329 328 327 328 329 329 329 329 330 329 329 328 327 327 327 327 326 325 325 323 321 320 317 312 310 310 310 310 310 309
329 328 326 326 329 331 331 330 330 329 328 327 327 326 327 327 328 328 328 329 328 328 328 328 327 328 328 328 329 329 329 329 329 329 328 328 328 328 329 329 329 330 330 329 329 329 329 328 327 326 325 325 324 322 323 319 313 310 311 310 311 311 310
328 328 327 326 327 330 331 329 328 326 326 327 326 326 326 326 327 328 328 329 328 328 328 328 328 328 327 328 328 328 328 328 329 329 328 328 328 328 329 329 329 329 330 330 329 329 329 328 326 325 325 325 324 322 323 319 312 310 311 311 311 311 310
328 327 327 326 325 328 329 328 326 326 326 326 326 325 325 325 326 327 327 328 328 328 327 327 327 327 327 328 328 328 328 328 328 328 328 328 329 329 329 329 329 329 330 330 329 329 328 326 326 325 325 324 323 322 323 319 312 310 311 310 311 311 311
328 328 328 327 325 326 327 327 326 326 325 325 325 324 323 324 325 325 326 328 328 327 327 327 327 327 327 327 327 327 327 326 326 327 328 328 329 329 329 329 329 329 330 329 329 328 326 325 325 325 324 323 323 322 322 318 312 310 311 310 310 311 311
327 328 328 327 326 325 326 326 325 325 325 325 324 322 323 324 324 325 326 327 327 326 326 326 326 326 326 327 327 327 326 326 325 326 327 327 328 329 329 329 330 330 330 329 328 327 326 325 325 325 323 322 321 321 320 316 312 311 311 311 311 312 311
327 327 327 326 326 325 326 325 325 325 324 323 321 322 323 323 323 324 326 326 325 325 324 324 324 324 325 325 325 325 325 325 325 325 326 326 327 328 328 328 330 329 329 328 327 326 326 323 323 323 322 321 320 319 318 315 313 312 312 312 311 311 311
326 327 326 326 325 325 325 325 325 324 322 321 321 322 323 323 323 324 325 324 323 323 323 322 322 322 323 323 323 323 323 323 324 324 324 325 327 328 328 328 329 328 328 328 327 326 325 322 321 321 320 319 318 316 316 315 314 313 314 313 313 312 311
326 326 326 326 326 325 325 325 323 321 321 320 321 322 322 323 324 324 323 323 322 321 322 322 322 322 322 321 321 321 321 322 323 323 323 324 325 327 327 326 327 326 326 325 325 325 324 322 321 320 320 319 318 316 316 316 315 315 316 316 316 315 314
325 326 326 326 325 325 324 323 321 320 320 320 320 320 320 321 321 321 321 321 321 321 321 321 321 321 321 322 321 321 321 321 322 322 323 323 324 325 325 324 325 324 322 320 320 320 321 320 320 319 318 318 317 317 317 317 317 317 317 318 318 316 316
325 326 326 325 325 324 323 321 320 320 319 318 318 318 318 318 318 318 319 319 319 319 320 319 320 320 320 321 321 321 321 320 321 321 322 322 323 323 322 322 321 319 316 315 315 315 316 316 316 315 315 315 315 315 315 315 315 314 314 314 314 313 314
324 325 325 324 324 323 321 319 318 318 317 317 316 316 316 316 316 316 317 318 317 318 318 318 318 319 320 320 320 321 320 320 320 321 321 321 321 320 319 318 317 315 314 314 315 316 316 317 317 316 317 317 317 317 316 316 316 316 316 316 315 315 316
321 322 323 324 323 321 320 318 315 314 314 314 314 314 314 314 314 314 314 315 315 315 316 316 316 319 320 320 320 320 320 320 320 319 318 319 318 317 317 317 317 317 317 318 319 319 320 320 320 320 320 320 320 319 319 318 318 318 318 317 317 317 318
315 316 318 321 321 318 317 316 313 311 311 311 311 312 311 311 312 311 311 312 313 313 313 313 315 318 321 320 320 320 320 320 319 317 317 317 317 316 316 317 317 318 318 319 319 319 319 319 319 319 319 320 320 320 319 319 318 318 318 318 317 317 317
309 310 311 313 315 314 313 311 310 309 309 307 307 307 307 307 307 308 309 311 312 312 313 313 315 319 321 321 321 321 321 319 318 317 316 316 316 315 315 316 317 317 317 317 316 317 317 317 317 316 315 315 315 315 314 313 312 312 312 312 312 311 311
306 307 307 308 309 310 309 308 307 307 306 305 303 303 304 304 304 305 306 308 309 311 312 313 315 319 321 321 321 321 321 320 318 317 315 314 314 314 314 313 314 315 315 313 313 313 314 314 314 312 310 309 308 307 307 306 306 305 304 304 304 303 303
306 306 306 306 307 307 307 306 305 305 304 304 302 302 302 302 302 302 302 303 305 307 308 309 313 317 320 321 321 321 321 320 317 314 313 311 311 311 311 310 310 311 310 309 308 308 309 309 308 306 305 304 302 301 300 301 302 302 302 302 301 301 301
306 306 306 306 306 306 306 305 305 304 303 302 301 301 301 301 301 300 300 301 301 301 302 303 308 313 317 319 320 321 321 320 316 312 310 309 309 308 308 308 307 307 306 305 304 304 304 304 303 301 300 299 299 299 299 300 301 301 302 302 303 303 303
304 305 306 306 306 306 305 305 304 304 303 302 301 301 300 300 300 300 300 300 300 300 300 300 302 307 311 314 316 318 318 318 315 312 309 308 307 306 306 306 305 304 303 302 301 300 300 299 299 298 298 299 300 301 302 302 303 303 303 304 304 304 303
302 303 304 306 306 305 305 304 303 303 303 303 302 301 300 300 300 299 299 299 299 299 300 299 299 301 304 307 310 312 313 312 311 310 308 305 304 303 302 301 301 300 299 299 299 299 299 299 300 300 301 303 303 304 304 303 304 304 304 304 303 302 302
302 302 302 303 303 303 304 304 303 303 302 302 302 301 301 300 300 299 299 298 299 299 299 299 299 299 300 301 303 305 306 306 306 306 305 302 301 300 299 298 298 298 299 299 300 301 301 302 303 303 304 304 304 304 303 303 303 303 303 302 301 301 300
301 301 302 302 302 302 302 303 304 304 303 303 302 301 301 301 301 300 300 300 300 300 299 298 299 299 299 299 300 300 301 301 301 302 301 300 298 298 298 299 299 300 301 301 302 302 303 303 303 304 304 303 303 303 303 302 302 301 301 300 300 299 299
Wind_Speed
23 21 21 21 23 23 23 24 24 22 22 21 20 20 19 18 17 15 15 16 17 16 16 18 18 17 18 19 22 24 25 27 27 29 27 24 26 19 13 13 7 8 20 19 13 11 6 2 4 7 8 11 12 11 15 18 18 17 15 13 11 10 10
22 22 21 21 21 22 23 24 24 23 22 21 20 20 19 18 16 15 15 17 17 18 19 19 18 17 18 20 24 25 25 27 27 28 28 27 27 22 16 14 9 13 18 15 15 15 8 5 4 4 7 10 10 12 18 20 19 17 15 13 11 10 9
20 20 20 21 21 22 23 24 23 23 23 22 21 20 19 18 16 15 16 17 18 18 20 20 18 17 17 19 23 26 26 25 25 27 27 27 27 22 18 16 14 17 15 10 13 15 9 6 4 4 9 11 10 13 19 22 20 17 14 13 11 9 8
22 21 21 22 22 23 23 24 24 24 23 23 22 22 20 18 17 16 17 17 18 19 20 20 19 17 17 19 21 24 25 24 23 24 26 27 26 21 18 17 17 21 19 13 16 18 12 8 6 5 9 14 15 16 20 21 21 19 14 12 11 9 9
24 23 24 24 24 25 24 24 24 24 23 23 23 22 21 19 18 17 17 18 19 21 21 19 18 17 17 19 21 22 23 24 23 22 25 27 25 21 19 18 19 23 23 20 22 22 18 16 15 9 9 15 14 13 19 20 19 20 16 12 11 10 10
25 25 25 26 26 27 26 26 26 25 25 24 22 22 21 19 18 17 17 19 20 21 20 18 17 17 19 19 20 21 21 22 24 23 24 27 25 21 19 19 19 22 20 19 23 24 20 21 21 13 11 15 12 12 17 17 17 18 17 15 13 11 10
26 26 26 26 27 28 27 27 27 27 26 24 23 23 20 18 18 18 17 18 19 19 18 17 16 18 19 18 18 19 19 20 23 23 22 25 26 22 19 19 19 19 18 18 22 24 22 23 23 18 14 11 12 14 13 13 18 18 15 17 17 14 12
27 27 27 27 28 28 27 27 27 27 25 25 24 22 20 18 19 18 17 17 17 17 17 17 17 18 18 16 17 18 18 19 21 22 22 23 25 23 20 19 19 19 17 17 22 23 23 25 25 25 21 11 7 8 8 11 17 17 17 19 18 17 15
27 27 26 27 28 28 27 26 26 26 24 24 23 21 19 20 20 19 18 17 16 16 16 17 18 18 18 17 17 17 17 18 18 20 21 21 23 24 22 18 18 19 18 17 22 23 22 24 26 27 27 19 10 4 4 7 8 10 18 20 18 18 16
26 27 27 27 28 27 26 25 24 24 23 22 21 19 19 20 20 18 18 17 16 15 15 17 17 17 17 18 18 19 18 17 18 19 20 20 21 23 23 20 18 20 19 18 21 22 21 23 25 26 26 25 20 9 3 5 4 7 16 19 18 19 17
25 27 27 27 28 27 25 25 24 24 23 22 21 19 19 20 19 17 16 16 15 14 14 15 16 17 17 18 19 20 19 18 17 18 18 20 21 21 22 21 19 19 20 20 21 21 22 22 22 23 24 25 26 20 11 6 4 11 20 20 17 19 18
23 26 28 27 26 26 25 25 25 24 23 22 21 21 21 21 21 19 17 16 15 15 15 15 17 17 18 19 19 19 19 18 17 17 17 19 22 22 21 21 20 18 18 20 21 20 22 22 20 20 22 24 26 23 21 14 5 11 24 23 19 19 18
21 22 26 27 26 26 26 25 26 25 24 24 23 23 23 23 23 23 20 18 17 16 15 17 17 16 17 19 18 18 19 18 17 17 17 19 22 23 22 21 20 17 17 18 20 20 21 22 20 18 20 24 24 19 19 19 10 11 23 25 22 21 18
19 18 20 25 26 26 26 26 26 26 26 25 25 26 25 24 24 24 23 21 19 17 15 16 16 15 17 19 18 19 19 18 18 17 17 20 22 22 22 21 20 18 17 17 19 19 20 20 19 19 19 20 20 17 17 18 12 10 17 21 21 21 20
23 18 17 21 26 27 27 27 27 28 28 25 26 25 23 24 25 24 23 22 19 17 15 14 14 14 16 18 19 19 18 18 19 18 17 20 21 21 21 21 20 18 17 17 18 18 19 18 17 19 20 17 17 18 17 18 16 15 16 19 20 21 22
23 20 16 21 26 28 28 30 30 30 28 25 25 24 22 23 26 24 23 22 20 18 16 14 13 13 13 15 17 19 19 19 19 18 19 20 21 21 20 20 20 19 18 18 18 17 17 17 16 19 21 17 16 17 16 18 20 21 21 19 20 22 24
19 20 17 21 28 31 31 32 32 29 27 26 24 24 22 23 24 23 23 22 20 18 16 15 14 12 11 12 13 16 17 18 18 18 19 19 20 21 20 21 21 20 19 19 18 17 16 16 16 18 19 16 16 16 14 16 22 25 24 22 22 24 25
19 21 18 18 24 33 33 29 29 28 27 26 24 23 22 22 22 22 22 22 20 17 15 15 15 14 12 11 12 13 15 16 17 18 18 18 19 20 20 21 21 21 20 18 17 17 16 16 15 16 17 16 16 15 12 13 22 27 26 25 25 24 24
23 24 21 17 18 26 30 26 26 27 26 25 25 23 21 21 21 22 22 22 21 18 16 15 14 14 14 13 13 13 13 14 16 17 18 17 17 18 19 19 21 21 19 17 18 17 16 16 14 13 15 15 15 13 11 12 21 26 27 27 26 23 24
27 26 26 21 16 19 25 25 25 27 25 25 25 22 21 23 22 22 23 23 22 20 18 16 14 14 14 14 15 14 14 14 14 15 17 17 17 17 18 19 20 20 18 17 17 16 15 15 14 12 13 13 13 12 11 14 21 25 26 26 24 23 25
25 25 27 28 22 20 24 26 26 27 26 25 25 24 25 26 24 23 23 23 22 20 19 17 15 16 16 15 16 15 15 15 15 15 16 16 16 15 16 19 19 19 18 17 15 14 12 11 12 12 11 10 11 11 12 19 24 24 24 24 23 23 24
17 22 28 31 29 26 26 27 28 27 27 26 26 26 27 26 23 23 23 22 20 19 19 17 15 14 15 15 14 15 15 16 16 16 16 16 15 13 15 19 19 17 18 16 14 13 10 6 8 11 10 9 10 10 14 21 24 23 23 23 23 22 20
14 19 28 33 34 31 28 28 28 28 29 28 26 27 27 26 24 24 24 22 21 21 21 18 16 15 15 14 12 12 13 16 18 18 17 16 15 14 15 17 18 17 17 16 14 13 10 7 7 9 8 5 6 11 18 22 22 21 21 20 20 21 20
13 17 27 32 33 31 29 29 28 28 28 27 27 28 27 27 28 27 25 23 23 22 20 18 17 16 16 17 15 14 12 14 17 19 17 16 16 16 15 14 14 14 15 16 16 14 12 9 9 9 8 8 7 10 15 17 17 17 16 14 13 16 18
13 18 27 30 30 28 27 27 26 27 28 28 30 31 29 29 29 28 26 25 23 21 20 18 17 16 15 15 15 16 15 14 15 17 18 18 18 17 15 13 13 13 13 14 15 16 15 13 11 10 10 11 12 11 11 11 11 11 11 10 9 9 9
17 23 27 27 27 25 24 25 25 27 31 32 32 33 32 31 30 28 27 26 23 22 20 18 17 15 14 14 15 15 14 14 16 18 20 21 20 18 16 15 15 16 16 16 16 15 15 15 14 13 12 12 12 11 10 9 9 9 8 8 9 9 6
17 25 27 24 23 24 26 26 24 27 33 34 33 34 32 31 29 27 26 25 23 22 20 18 17 15 14 14 15 16 15 15 17 20 21 21 20 19 18 18 18 17 17 17 16 16 16 15 15 15 14 13 12 11 11 9 9 8 7 6 7 7 5
7 16 21 23 22 23 28 28 22 24 32 33 32 33 31 29 28 25 23 23 22 20 18 17 16 15 16 17 17 18 18 18 20 22 22 22 22 21 20 20 20 19 18 17 16 15 15 15 15 15 14 13 11 10 10 9 8 7 6 6 6 6 4
10 8 12 20 25 23 26 29 26 25 30 31 30 31 29 27 26 24 22 21 20 18 16 16 16 17 18 20 21 21 21 21 23 24 24 23 22 21 20 19 20 19 18 17 15 14 13 13 13 14 13 12 10 9 8 7 6 5 4 4 4 4 3
22 18 14 16 23 25 25 28 29 28 29 29 28 29 28 26 25 23 22 20 19 17 15 14 16 18 20 21 23 24 25 25 27 27 25 24 22 20 19 17 17 17 16 15 13 11 10 9 10 11 10 9 8 7 6 5 4 2 2 2 3 4 5
30 28 25 20 19 25 28 28 29 30 30 29 27 27 28 27 25 23 22 21 20 18 16 14 15 19 21 22 24 26 27 28 28 28 26 24 22 21 19 17 15 14 14 12 10 8 7 6 6 6 6 5 4 3 2 2 2 2 3 4 4 5 6
33 33 31 25 20 23 30 31 29 30 31 29 27 28 29 29 27 25 24 23 22 20 19 16 16 20 23 24 24 26 28 28 28 27 25 24 22 20 18 16 14 12 11 10 8 6 5 4 3 4 3 3 4 5 5 5 5 6 6 6 7 7 7
34 33 32 28 24 22 28 33 31 31 31 29 28 29 30 30 30 28 26 25 23 22 21 19 17 18 22 25 26 26 27 28 28 26 24 22 21 19 16 14 12 11 9 8 6 5 5 4 4 4 4 4 5 6 6 6 6 7 7 7 7 6 6
33 33 31 29 26 24 26 30 30 30 31 29 29 31 31 32 32 30 28 27 26 24 22 20 19 17 18 21 24 26 27 28 28 26 24 21 18 17 14 12 10 9 7 6 5 5 5 5 5 5 6 7 8 9 8 8 8 8 8 9 8 7 7
31 32 31 31 29 27 26 27 27 28 29 28 29 31 31 31 32 31 29 27 26 24 22 20 19 18 17 16 18 21 24 24 24 23 22 19 17 15 13 10 9 8 7 7 7 7 7 7 8 9 10 11 10 10 10 10 9 9 9 9 10 10 11
26 27 27 29 30 29 27 26 25 25 25 27 29 30 29 29 30 30 29 27 26 24 21 18 17 17 16 14 14 15 17 18 17 17 18 18 15 13 12 11 11 11 11 11 11 11 10 10 10 11 11 11 10 10 10 9 9 9 10 11 11 13 14
24 23 22 23 25 27 27 27 26 24 23 24 25 25 24 27 28 27 26 25 24 22 19 16 15 16 15 13 12 12 13 13 12 12 14 15 14 13 13 14 14 14 14 14 14 14 13 13 12 12 12 11 10 9 9 9 10 10 11 12 13 14 14
Wind_Direction
194 198 202 205 205 206 208 206 203 201 199 198 197 199 201 201 205 213 215 212 211 212 214 211 211 211 203 198 197 196 195 195 192 186 185 184 186 195 200 197 216 195 173 169 164 152 133 119 169 185 186 179 177 177 176 174 172 170 167 167 168 162 156
195 197 199 203 205 206 207 205 203 202 198 196 196 197 198 200 207 217 217 211 210 214 216 213 209 207 204 200 196 195 196 199 199 194 190 187 188 191 191 192 192 169 165 167 162 152 138 137 155 173 171 170 173 177 178 175 171 170 166 167 172 170 166
190 190 194 200 202 202 202 202 202 200 197 195 195 197 198 201 208 216 216 210 208 213 216 214 208 205 204 201 198 197 196 198 200 199 197 193 190 191 190 187 174 160 156 154 159 157 145 137 139 156 164 163 162 173 179 175 171 170 167 170 172 169 170
190 186 186 191 196 198 198 199 200 198 197 195 194 197 201 204 209 215 217 212 208 210 215 215 209 205 202 198 199 198 196 198 199 201 200 195 189 189 192 192 184 173 167 167 168 164 155 142 132 142 161 161 157 167 176 175 173 171 168 174 173 163 163
197 191 185 186 192 197 197 197 197 196 196 196 196 199 202 207 212 216 217 215 211 210 212 213 209 205 201 195 196 196 197 200 201 202 202 196 190 189 189 193 193 184 178 177 175 171 168 159 149 142 150 153 151 165 174 171 170 172 172 180 181 171 165
204 199 193 189 191 196 199 198 197 196 196 196 197 198 199 205 210 212 212 209 209 210 210 211 207 202 198 195 195 193 195 202 203 202 204 199 193 190 188 189 190 185 183 183 179 177 173 160 150 143 147 150 144 154 167 165 163 168 176 186 189 182 174
208 204 201 197 195 197 200 200 199 199 198 197 197 195 193 197 202 206 206 206 208 209 208 209 204 198 197 196 195 193 195 201 201 200 203 202 197 193 190 189 187 185 186 187 183 180 176 166 156 147 145 145 143 149 155 158 161 165 176 190 193 189 181
212 207 205 203 200 199 200 201 201 202 202 200 198 196 193 194 199 201 205 208 210 207 208 209 204 198 198 198 197 199 200 200 200 200 202 202 201 199 195 192 192 191 189 188 188 186 183 177 168 158 152 142 143 154 143 146 161 172 180 187 194 194 187
214 209 205 202 201 200 200 201 202 203 202 201 200 199 196 195 196 199 205 210 208 206 206 205 200 196 197 200 201 202 203 200 199 202 202 203 205 204 200 198 198 198 195 191 191 191 190 187 180 170 163 156 151 152 142 148 153 172 183 184 189 197 195
213 210 205 200 200 201 201 201 201 202 201 201 200 195 189 188 191 196 202 203 202 202 200 198 197 196 199 204 202 200 202 201 201 203 204 204 205 204 203 202 204 203 199 194 193 193 194 193 188 182 178 172 166 156 149 177 165 165 183 187 186 192 197
217 214 208 203 202 201 201 200 199 198 197 195 192 185 180 182 186 190 191 192 197 200 198 197 197 196 201 205 202 200 201 201 201 203 204 204 203 202 202 202 204 206 203 198 195 195 194 193 189 189 190 185 177 173 168 171 178 177 183 190 191 191 193
222 219 212 207 203 201 200 197 194 191 188 186 185 181 178 179 182 183 182 183 190 197 198 197 196 196 201 203 200 202 205 203 203 202 201 202 201 200 199 200 202 204 204 202 198 197 197 193 187 188 196 193 186 182 176 166 161 189 190 193 197 197 195
224 229 218 209 203 200 196 191 188 186 184 184 183 182 179 179 179 180 181 181 185 195 199 196 196 198 199 199 199 200 203 203 203 203 200 199 199 198 198 199 202 201 201 201 199 199 201 200 194 192 197 197 193 192 184 174 168 192 196 198 200 200 198
221 241 231 213 203 197 192 189 187 186 184 183 182 181 182 182 181 178 178 178 180 188 193 190 194 197 196 198 198 198 201 202 203 204 201 198 198 199 199 200 201 200 200 202 202 202 203 204 203 200 198 198 200 203 198 188 180 182 193 200 203 202 199
210 231 245 225 204 194 192 190 187 183 180 178 178 179 181 181 180 178 176 176 177 179 182 182 186 189 193 197 197 198 202 202 203 204 202 199 199 200 202 203 202 201 202 203 202 204 205 205 206 204 202 200 199 202 206 203 192 182 188 200 204 203 199
205 210 232 228 206 193 190 186 182 180 177 177 179 179 176 175 177 178 175 174 176 177 178 178 178 180 187 194 196 198 201 202 204 205 201 199 200 202 204 205 204 203 204 206 205 207 211 212 210 208 206 204 203 205 212 211 200 191 189 195 204 205 198
208 197 206 219 202 187 183 180 178 179 177 175 177 176 174 174 176 177 175 175 176 178 181 182 182 182 185 192 196 195 198 201 203 203 201 201 203 204 204 204 204 203 204 207 209 210 217 220 216 211 209 211 213 217 224 217 207 200 192 190 202 209 202
208 191 194 218 202 181 178 178 175 174 173 170 171 174 176 179 181 179 177 176 176 179 184 187 189 190 189 193 195 193 195 195 194 196 199 203 203 200 199 199 200 201 204 208 210 214 219 220 217 214 216 219 218 224 241 228 207 201 196 195 201 205 204
201 191 188 214 215 185 177 176 173 173 173 171 171 175 179 184 187 185 182 180 177 179 185 189 192 193 192 191 190 190 192 192 191 193 196 200 200 197 195 195 197 200 203 206 209 214 218 217 215 217 219 221 219 228 252 237 206 198 200 202 201 200 202
196 193 187 196 213 195 179 177 177 176 174 171 173 176 176 177 180 182 182 181 178 179 184 189 195 197 194 192 190 189 190 191 191 192 193 195 196 198 198 195 196 201 204 207 209 210 213 216 219 223 221 220 225 238 251 232 208 199 199 200 198 200 202
190 194 188 184 191 196 186 181 182 180 175 174 177 175 170 168 170 173 174 176 178 181 182 185 192 201 203 201 199 198 196 194 193 192 193 196 198 202 204 200 200 204 205 208 207 199 199 211 220 222 219 220 233 244 237 219 205 199 200 198 198 202 204
186 189 186 179 181 191 192 187 185 182 177 177 178 175 171 171 171 172 172 173 174 175 172 169 171 185 197 200 202 204 201 196 195 196 198 202 205 205 204 202 203 205 204 203 197 185 182 190 204 206 206 221 238 231 216 211 203 195 195 196 198 201 202
189 186 183 179 179 185 191 189 184 180 177 177 177 173 172 174 175 174 174 173 170 167 164 159 153 155 161 164 169 181 190 193 196 198 197 196 196 196 197 200 200 199 198 193 181 174 172 160 158 171 178 202 227 207 202 205 203 194 189 189 195 199 200
200 190 185 181 178 180 188 189 182 177 177 177 173 170 171 173 173 174 175 173 169 165 162 159 157 154 149 145 144 147 158 178 190 195 191 182 181 186 190 191 187 184 186 180 169 166 167 158 145 139 131 117 126 168 184 188 188 187 183 178 183 193 198
206 197 190 183 178 180 185 184 179 177 176 172 168 167 168 168 167 168 170 168 165 162 159 155 157 163 163 157 149 143 142 150 164 175 178 176 178 183 183 177 169 164 161 158 155 154 152 148 141 135 127 121 120 127 140 147 152 157 159 152 147 156 171
197 197 193 185 181 183 183 176 171 169 167 163 162 162 161 159 159 160 162 162 158 155 153 150 149 157 168 171 166 158 151 150 154 162 170 175 176 175 172 166 158 150 146 145 144 142 140 139 140 138 134 131 130 128 130 135 136 136 140 143 136 128 129
193 196 195 191 186 184 180 173 167 162 160 158 156 155 153 153 153 153 155 156 154 152 151 148 144 145 155 165 169 165 158 156 159 162 166 169 167 161 158 155 149 141 140 140 138 137 137 138 141 141 137 134 133 133 134 134 131 129 128 131 129 123 118
171 187 189 187 184 178 170 165 159 153 153 153 151 149 148 148 149 149 150 152 152 151 150 149 145 141 146 154 159 157 152 152 155 156 156 156 155 151 148 146 142 137 134 131 129 131 133 135 137 136 134 133 130 131 132 124 115 107 96 92 93 93 88
75 114 152 163 164 160 154 152 150 146 144 143 143 142 141 141 142 141 143 147 149 147 147 150 150 146 146 150 150 147 146 146 146 145 142 141 141 140 139 139 138 136 133 129 126 128 129 131 133 128 126 126 123 121 120 108 95 81 64 52 40 28 13
55 67 79 117 137 139 135 135 138 139 137 132 131 132 131 129 130 130 131 133 137 137 136 143 151 151 150 150 148 144 142 140 138 136 133 131 132 130 129 131 134 135 134 128 124 127 129 132 131 122 118 120 118 117 113 101 89 65 25 355 343 336 327
49 57 58 65 96 117 121 121 124 129 129 124 120 120 121 118 116 116 117 116 117 119 120 129 145 152 152 153 151 146 143 139 134 132 129 126 126 126 123 123 126 130 129 122 120 126 130 134 132 117 108 107 99 78 51 25 327 306 305 303 306 311 315
53 56 57 52 62 92 107 112 114 117 118 116 112 111 111 110 105 101 102 103 103 103 102 109 130 145 150 153 153 150 147 143 135 131 129 126 123 122 121 119 117 117 115 110 108 111 110 112 107 83 56 42 45 36 19 357 337 326 318 316 319 319 321
60 61 61 56 54 71 94 104 107 108 108 108 106 104 103 101 97 92 91 92 92 91 89 92 107 129 142 148 151 153 152 148 141 134 131 128 124 121 119 117 113 107 102 96 88 80 74 63 54 47 33 36 57 60 52 37 26 21 17 17 16 5 357
62 65 68 67 60 61 79 93 99 103 105 104 100 98 97 95 92 88 85 85 83 80 79 82 90 106 124 136 145 151 151 148 145 140 132 126 121 117 114 112 108 100 89 80 68 58 57 56 57 67 75 81 85 83 76 70 64 59 56 54 50 42 33
60 63 69 74 70 63 70 83 90 95 101 102 98 94 92 91 90 86 83 82 80 75 70 71 79 91 102 113 127 138 139 138 140 140 132 121 115 111 106 102 99 93 88 88 88 86 88 91 94 97 95 93 92 88 85 83 77 69 67 64 58 50 43
59 61 65 72 74 68 69 79 87 91 95 96 94 92 91 89 87 86 84 82 80 76 69 65 69 78 86 94 103 114 121 125 130 133 125 114 107 104 102 101 100 100 102 104 105 106 106 106 107 105 101 99 97 94 93 88 78 71 69 64 56 50 44
60 62 62 67 71 70 69 74 82 88 90 90 89 90 90 90 87 86 87 85 81 78 75 71 69 70 73 79 82 88 98 106 113 120 117 107 101 101 105 107 107 107 108 107 105 104 102 100 100 99 98 99 97 93 89 81 74 70 64 57 51 46 38